Location: Unspecified
(0.0000°N, 0.0000°E)
Time: 01:25:43
(UTC+00:00)

Altair - Pass Details

Date: 19 November 2019
Orbit: 1502 x 1682 km, 47.2° (Epoch: 10 December)

Event Time Altitude Azimuth Distance (km) Brightness Sun altitude
Rises 10:23:30 0° 338° (NNW) 4,729 9.8 62.1°
Reaches altitude 10° 10:26:55 10° 347° (NNW) 3,773 9.4 62.7°
Maximum altitude 10:35:28 36° 50° (NE) 2,376 9.1 64.1°
Drops below altitude 10° 10:44:16 10° 112° (ESE) 3,902 10.1 65.5°
Sets 10:47:49 0° 120° (ESE) 4,909 10.5 66.0°
